Location: Sungai Aping
(2.6333°N, 113.4333°E)
Time: 21:14:47
(UTC+00:00)

Daily predictions for brighter satellites

Satellite Brightness Start Highest point End
(mag) Time Altitude Azimuth Time Altitude Azimuth Time Altitude Azimuth
Cosmos 967 Rocket 4.5 12:00:46 10° S 12:07:02 57° ESE 12:13:19 10° NNE
Cosmos 614 Rocket 3.8 12:04:42 10° N 12:09:51 81° ENE 12:11:37 42° SSE
ERBS 3.3 12:09:48 10° NNW 12:11:48 38° NNW 12:11:48 38° NNW
USA 305 3.9 12:09:01 10° NW 12:12:52 39° WSW 12:13:58 32° SSW
Ariane 3 Deb 2.6 12:05:05 10° W 12:15:22 85° N 12:15:59 64° E
deb Chang Zheng 4 4.4 12:17:17 34° NNE 12:17:17 34° NNE 12:20:02 10° N
Cosmos 1833 Rocket 3.1 12:18:22 42° ENE 12:18:22 42° ENE 12:22:30 10° NNE
USA 308 3.5 12:14:58 10° NW 12:18:57 46° WSW 12:19:29 43° SSW
OBJECT-B 2.9 12:21:17 19° NNW 12:21:17 19° NNW 12:22:15 10° NNW
Cosmos 2369 Rocket 2.2 12:14:59 10° NNW 12:20:37 76° WSW 12:22:47 39° S
Cosmos 1452 Rocket 3.3 12:23:15 60° SSE 12:24:07 75° ESE 12:29:21 10° NNE
Ariane H10 3.7 12:12:43 10° W 12:24:09 56° N 12:24:50 49° NNE
Centaur AC-72 3.8 12:19:01 10° W 12:25:19 71° SSW 12:31:45 36° ESE
Meteor 2-5 Rocket 3.8 12:20:12 10° S 12:25:45 75° W 12:31:14 10° N
Cosmos 1745 Rocket 4.1 12:19:58 10° NNE 12:25:43 50° E 12:25:43 50° E
Delta 2 Rocket 4.5 12:21:40 10° SW 12:26:39 38° S 12:26:39 38° S
Cosmos 1025 Rocket 3.2 12:28:36 67° NW 12:28:36 67° NW 12:32:26 10° N
COBE Rocket 3.9 12:35:32 69° NNW 12:35:32 69° NNW 12:39:37 10° NNW
ARIANE DEB (SYLDA) 3.9 12:21:43 10° W 12:36:56 40° SSW 12:37:29 40° S
ARIANE 5 DEB (SYLDA) 3.6 12:35:06 10° W 12:38:29 69° SW 12:38:29 69° SW
IRS-1C Rocket 4.1 12:39:47 70° N 12:39:47 70° N 12:44:26 10° N
CZ-4 R/B 3.8 12:38:34 14° SW 12:40:40 20° WSW 12:43:43 10° NW
Meteor 1-24 Rocket 4.2 12:41:59 32° SW 12:44:12 53° W 12:49:21 10° N
USA 267 3.1 12:48:08 10° NE 12:55:03 81° SSW 13:01:14 10° SW
Sea Lan Dem Rocket 4.3 12:54:16 10° W 13:00:08 80° S 22:50:35 10° E
H-2A R/B 4.4 12:33:20 10° WSW 13:03:15 38° NW 13:07:22 17° NNE
Hubble Space Telescope 3.7 13:06:28 10° W 13:07:07 14° W 13:07:07 14° W
ARIANE 5 R/B 4.3 13:19:10 10° W 13:20:47 16° W 13:20:47 16° W
ATLAS 3B CENTAUR R/B 4.0 13:45:52 10° WNW 13:58:34 70° WNW 13:58:34 70° WNW
Tsikada Rocket 4.4 19:57:25 56° NNE 19:57:25 56° NNE 20:02:15 10° N
Ariane H10+ 3.5 19:57:52 57° S 19:57:52 57° S 20:16:22 10° ESE
ATLAS 3B R/B 3.8 20:08:28 28° NNW 20:08:28 28° NNW 20:11:57 10° N
Ariane H10 3.8 20:09:58 27° NE 20:09:58 27° NE 20:11:37 10° ENE
ARIANE 5 R/B 4.2 20:07:43 10° N 20:09:45 24° NNW 20:09:45 24° NNW
Meteor 1-18 Rocket 4.3 20:08:38 10° N 20:14:07 78° NNE 20:14:07 78° NNE
Envisat 3.9 20:12:11 10° NNE 20:16:59 45° ESE 20:18:01 39° SE
ARIANE 3 DEB 3.8 20:18:51 57° NNE 20:18:51 57° NNE 20:22:19 10° ENE
Lacrosse 4 Rocket 3.9 20:18:41 10° NNE 20:21:48 21° ENE 20:24:58 10° ESE
SL-16 R/B 3.0 20:16:55 10° N 20:22:22 49° ENE 20:27:48 10° SSE
Spot 4 Rocket 3.9 20:22:32 10° N 20:27:28 82° NNW 20:27:28 82° NNW
Cosmos 2298 Rocket 4.0 20:24:06 10° NNW 20:28:45 68° NNW 20:28:45 68° NNW
Cosmos 1844 Rocket 2.5 20:33:29 72° WSW 20:33:54 76° WNW 20:39:28 10° N
Cosmos 2034 Rocket 3.8 20:27:56 10° N 20:34:04 87° W 20:37:45 26° S
Cosmos 1933 Rocket 3.6 20:35:45 78° ESE 20:35:51 79° E 20:40:16 10° N
ARIANE 5 R/B 2.3 20:38:31 68° SSW 20:38:46 70° S 20:51:49 10° E
ATLAS 5 CENTAUR R/B 3.6 20:39:15 31° SSW 20:43:48 51° SSE 21:19:11 10° ENE
Cosmos 923 Rocket 3.9 20:42:13 45° S 20:43:52 86° ESE 20:49:11 10° NNE
Meteor 2-4 Rocket 3.8 20:40:39 10° NNW 20:46:16 55° W 20:47:42 44° SW
Meteor 2-19 Rocket 4.4 20:46:55 37° SSW 20:49:20 65° W 20:55:25 10° N
Landsat 4 3.9 20:46:25 10° NNE 20:50:07 67° ESE 20:50:58 48° SSE
Cosmos 1680 Rocket 3.7 20:47:27 25° S 20:50:31 70° ESE 20:55:46 10° NNE
PSLV R/B 3.3 20:46:35 10° N 20:50:44 79° WNW 20:51:19 64° SW
SWIFT 2.3 20:54:37 49° NW 20:55:39 77° NNE 20:59:48 10° ESE
ARIANE 44LP R/B 3.6 20:56:04 32° SSE 20:56:04 32° SSE 21:01:01 10° ESE
Milstar 3 Cent rocket 4.0 20:54:19 12° NW 20:56:24 15° NNW 20:59:24 10° NNE
Cosmos 1634 Rocket 4.5 20:51:46 10° N 20:58:00 63° E 21:04:15 10° SSE
SL-08 R/B 3.6 20:56:50 10° SSE 21:01:37 71° ENE 21:06:27 10° N
Cosmos 332 Rocket 3.8 20:57:04 10° NNW 21:01:52 58° WSW 21:06:40 10° S
CZ-4C R/B 1.7 21:02:00 45° W 21:02:35 49° WNW 21:06:46 10° N
Cosmos 2112 Rocket 4.1 20:58:59 18° S 21:03:00 80° ESE 21:08:19 10° NNE
YAOGAN 6 4.2 21:02:09 10° NNW 21:03:50 21° NW 21:03:50 21° NW
Meteor 2-15 4.5 21:02:13 10° N 21:08:19 83° E 21:14:24 10° S
Meteor 2-8 Rocket 4.4 21:02:19 10° N 21:08:28 89° E 21:14:39 10° S
CZ-2C R/B 3.5 21:07:13 10° NNW 21:10:49 33° WNW 21:11:09 33° W
CZ-2C R/B 3.1 21:06:04 10° SSE 21:11:27 64° ENE 21:16:56 10° N
SEDSat Delta rocket 3.8 21:09:22 28° SW 21:12:29 71° SE 21:18:48 10° ENE
ARIANE 5 R/B 1.2 21:13:43 60° W 21:14:03 88° SSE 21:17:55 10° E
Meteor 2-9 Rocket 4.2 21:08:55 10° SSW 21:14:40 71° W 21:20:18 10° N
Okean 1-7 4.5 21:12:46 10° NNE 21:16:48 39° E 21:20:53 10° SSE
Meteor 1-31 Rocket 4.1 21:13:52 10° NNE 21:17:33 41° ESE 21:21:14 10° S
CZ-2C R/B 3.0 21:19:25 10° N 21:23:57 50° WNW 21:28:10 12° SSW
Cosmos 1809 Rocket 4.4 21:18:03 10° S 21:24:09 81° W 21:30:17 10° N
Aurora 2 Rocket 3.0 21:24:37 22° SSW 21:24:37 22° SSW 21:27:04 10° SSE
USA 229 DEB 3.6 21:20:19 10° SSW 21:26:27 74° ESE 21:32:35 10° NNE
USA 229 3.6 21:20:23 10° SSW 21:26:32 73° ESE 21:32:41 10° NNE
BREEZE-M DEB (TANK) 4.3 21:25:55 21° WSW 21:27:08 24° SW 21:33:30 10° SSE
DELTA 4 R/B 4.0 21:25:56 10° NNW 21:28:18 22° NE 21:33:32 10° E
Cosmos 1869 Rocket 4.1 21:29:49 11° SSW 21:33:44 40° W 21:37:54 10° NNW
NOAA 11 4.4 21:29:50 10° N 21:35:01 49° WNW 21:40:15 10° SSW
CZ-4B R/B 4.1 21:32:12 10° N 21:36:37 87° WNW 21:40:59 10° SSW
NOSS 3-1 (C) 4.4 21:34:43 15° W 21:36:45 19° WNW 21:40:11 10° NNW
CZ-2C R/B 2.9 21:36:37 10° S 21:38:46 17° SE 21:40:55 10° E
Cosmos 1733 Rocket 3.4 21:43:22 10° S 21:47:49 73° E 21:52:13 10° N
NOAA 12 4.3 21:45:52 10° NNE 21:51:10 77° ESE 21:56:26 10° S
Cosmos 1703 Rocket 3.6 21:47:59 10° NNW 21:52:22 66° W 21:56:49 10° S
ASTRO E2 3.0 21:49:08 10° WNW 21:52:50 42° SSW 21:56:32 10° SE
BREEZE-M R/B 4.2 21:49:08 10° NNW 21:53:10 36° NE 21:55:45 10° ESE
Cosmos 2292 Rocket 2.5 21:50:01 10° S 21:53:14 82° W 21:56:09 10° N
Delta 198 4.1 21:48:43 10° SW 21:53:20 48° SSE 21:57:16 10° E
NOSS 3-1 (A) 3.7 21:49:26 10° SW 21:53:48 32° WNW 21:58:11 10° N
OAO 2 Rocket 3.5 21:50:42 10° WSW 21:55:44 65° NW 22:00:40 10° NE
ARIANE 44L R/B 2.2 21:50:17 10° W 21:56:21 58° SSW 21:58:33 10° ESE
Cosmos 2278 Rocket 2.9 21:51:52 10° S 21:57:26 58° ESE 22:02:58 10° NNE
Lacrosse 4 Rocket 3.0 21:57:48 10° WNW 22:00:08 15° WSW 22:02:31 10° SW
APEX 3.0 21:58:49 10° NW 22:01:20 35° WSW 22:04:08 10° S
Cosmos 1975 4.0 21:58:28 10° SW 22:01:48 25° W 22:05:07 10° NNW
Cosmos 1939 Rocket 2.9 22:01:20 10° N 22:05:04 54° WNW 22:08:49 10° SSW
CZ-3 R/B 4.0 21:47:21 10° W 22:06:40 26° SW 22:13:58 10° S
ARIANE 5 R/B 3.8 22:05:38 10° W 22:30:29 52° S 22:35:32 10° ESE
ARIANE 5 R/B 4.3 14:49:21 10° W 22:54:21 72° S 23:00:17 10° ESE
